ROMMA est une association bénévole à but non lucratif. Votre soutien est indispensable : ADHERER à ROMMA ou FAIRE un DON

Chambon - (38, Isère)

Oisans (2460 m)   Longitude: 06° 10' 42" E   Latitude: 45° 01' 32" N Station partenaire n°803
 

Détail journalier du     <<     >>

Température Humidité Vent Dir Rafale Dir. rafale Neige 1 Neige 2
Heure (°C) (%) (km/h) (km/h) (cm) (cm)
01:00 -11.0786NNE15NE190229
02:00 -10.5678NNE15ENE189229
03:00 -10.8597NE13NE189229
04:00 -11.7622ENE8ENE189229
05:00 -11.9661ENE6ENE189229
06:00 -11.2627NE13NE189229
07:00 -11.35510NE14NE189229
08:00 -10.9427NE16ENE189229
09:00 -9.9378N17ENE189229
10:00 -6.7303N12N189229
11:00 -6.9333NE9NE189229
12:00 -7.3364SSE10SO189229
13:00 -5.0332SSO9SSO188229
14:00 -6.2426SSO14SO189228
15:00 -6.14810SO15SO189228
16:00 -5.9588SSO14SSO188228
17:00 -5.6636SSO12SSO188228
18:00 -7.7776SSO18OSO188228
19:00 -9.0839SO16SO188228
20:00 -9.7866SSO13SSO188228
21:00 -9.6812E9E188228
22:00 -10.0802E9E188228
23:00 -10.2791NE6SO188228
minuit -9.2702NNE9NE188228

Graphique du 19-03-2019

 

Serveur OMMA